Weather History for Mosby, MO

Change the Weather History Date:

Sunday, November 25, 2012

  Actual Average (KMKC) Record (KMKC)
Temperature  
Mean Temperature 40 °F -  
Max Temperature 53 °F 49 °F 64 °F (1998)
Min Temperature 28 °F 33 °F 21 °F (1996)
Degree Days  
Heating Degree Days 24    
Moisture  
Dew Point 29 °F    
Average Humidity 65    
Maximum Humidity 93    
Minimum Humidity 44    
Precipitation  
Precipitation 0.00 in - - ()
Sea Level Pressure  
Sea Level Pressure 29.95 in    
Wind  
Wind Speed 3 mph ()    
Max Wind Speed 10 mph    
Max Gust Speed -    
Visibility 10.0 miles    
Events      
Averages and records for this station are not official NWS values.
T = Trace of Precipitation, MM = Missing Value Source: Averaged Metar Reports

Daily Weather History Graph

Daily Weather History Graph

Search for Another Location

Airport:

Trip Planner

Search our weather history database for the weather conditions in past years. The results will help you decide how hot, cold, wet, or windy it might be!

Date:

Astronomy

Nov. 25, 2012 Rise Set
Actual Time 7:12 AM CST 4:56 PM CST
Civil Twilight 6:43 AM CST 5:25 PM CST
Nautical Twilight 6:10 AM CST 5:58 PM CST
Astronomical Twilight 5:37 AM CST 6:30 PM CST
Moon 3:13 PM CST (11/25) 4:27 AM CST (11/25)
Length of Visible Light 10h 42m
Length of Day
9h 43m
Waxing Gibbous, 93% of the Moon is Illuminated
Nov 25
Waxing Gibbous
Nov 28
Full
Dec 6
Last Quarter
Dec 13
New
Dec 19
First Quarter

Hourly Weather History & Observations

Time (CST) Temp. Windchill Dew Point Humidity Pressure Visibility Wind Dir Wind Speed Gust Speed Precip Events Conditions
12:15 AM 44.6 °F 41.4 °F 24.8 °F 46% 29.90 in 10.0 mi South 5.8 mph - N/A   Clear
12:35 AM 42.8 °F 41.1 °F 26.6 °F 53% 29.90 in 10.0 mi South 3.5 mph - N/A   Clear
12:55 AM 42.8 °F 41.1 °F 26.6 °F 53% 29.89 in 10.0 mi South 3.5 mph - N/A   Clear
1:15 AM 42.8 °F - 26.6 °F 53% 29.89 in 10.0 mi Calm Calm - N/A   Clear
1:35 AM 42.8 °F - 26.6 °F 53% 29.90 in 10.0 mi Calm Calm - N/A   Unknown
1:55 AM 39.2 °F - 26.6 °F 61% 29.90 in 10.0 mi Calm Calm - N/A   Clear
2:15 AM 35.6 °F - 28.4 °F 75% 29.90 in 10.0 mi Calm Calm - N/A   Clear
2:35 AM 33.8 °F - 28.4 °F 81% 29.90 in 10.0 mi Calm Calm - N/A   Clear
2:55 AM 33.8 °F - 28.4 °F 81% 29.90 in 10.0 mi Calm Calm - N/A   Clear
3:15 AM 33.8 °F - 28.4 °F 81% 29.90 in 10.0 mi Calm Calm - N/A   Clear
3:35 AM 35.6 °F - 26.6 °F 70% 29.90 in 10.0 mi Calm Calm - N/A   Clear
3:55 AM 37.4 °F - 26.6 °F 65% 29.89 in 10.0 mi Calm Calm - N/A   Clear
4:15 AM 37.4 °F - 26.6 °F 65% 29.88 in 10.0 mi Calm Calm - N/A   Clear
4:35 AM 33.8 °F - 26.6 °F 75% 29.89 in 10.0 mi Calm Calm - N/A   Clear
4:55 AM 33.8 °F - 26.6 °F 75% 29.89 in 10.0 mi Calm Calm - N/A   Clear
5:35 AM 32.0 °F - 26.6 °F 80% 29.90 in 10.0 mi Calm Calm - N/A   Clear
5:55 AM 32.0 °F - 26.6 °F 80% 29.90 in 10.0 mi Calm Calm - N/A   Clear
6:15 AM 32.0 °F 26.4 °F 26.6 °F 80% 29.91 in 10.0 mi North 5.8 mph - N/A   Clear
6:35 AM 30.2 °F - 26.6 °F 86% 29.92 in 10.0 mi Calm Calm - N/A   Clear
6:55 AM 28.4 °F - 26.6 °F 93% 29.92 in 10.0 mi Calm Calm - N/A   Clear
7:15 AM 30.2 °F - 26.6 °F 86% 29.93 in 10.0 mi Calm Calm - N/A   Clear
7:35 AM 30.2 °F - 26.6 °F 86% 29.93 in 10.0 mi Calm Calm - N/A   Clear
7:55 AM 30.2 °F - 26.6 °F 86% 29.93 in 10.0 mi Calm Calm - N/A   Clear
8:15 AM 32.0 °F - 28.4 °F 87% 29.94 in 10.0 mi Calm Calm - N/A   Clear
8:35 AM 32.0 °F - 28.4 °F 87% 29.95 in 10.0 mi Calm Calm - N/A   Clear
8:55 AM 33.8 °F - 30.2 °F 87% 29.95 in 10.0 mi Calm Calm - N/A   Clear
9:15 AM 37.4 °F - 30.2 °F 75% 29.96 in 10.0 mi Calm Calm - N/A   Clear
9:35 AM 41.0 °F 39.0 °F 30.2 °F 65% 29.96 in 10.0 mi NW 3.5 mph - N/A   Clear
9:55 AM 41.0 °F - 30.2 °F 65% 29.96 in 10.0 mi Calm Calm - N/A   Clear
10:15 AM 44.6 °F 42.2 °F 32.0 °F 61% 29.96 in 10.0 mi NNW 4.6 mph - N/A   Clear
10:35 AM 46.4 °F 42.4 °F 30.2 °F 53% 29.97 in 10.0 mi North 8.1 mph - N/A   Clear
11:15 AM 50.0 °F - 30.2 °F 47% 29.97 in 10.0 mi North 6.9 mph - N/A   Clear
11:35 AM 50.0 °F - 30.2 °F 47% 29.96 in 10.0 mi NNW 8.1 mph - N/A   Clear
11:55 AM 51.8 °F - 30.2 °F 44% 29.96 in 10.0 mi North 8.1 mph - N/A   Clear
12:15 PM 51.8 °F - 30.2 °F 44% 29.94 in 10.0 mi NE 5.8 mph - N/A   Clear
12:35 PM 51.8 °F - 30.2 °F 44% 29.94 in 10.0 mi NE 5.8 mph - N/A   Clear
1:15 PM 53.6 °F - 32.0 °F 44% 29.93 in 10.0 mi NNE 10.4 mph - N/A   Clear
1:35 PM 53.6 °F - 32.0 °F 44% 29.92 in 10.0 mi NNE 6.9 mph - N/A   Clear
1:55 PM 53.6 °F - 32.0 °F 44% 29.92 in 10.0 mi NNE 8.1 mph - N/A   Clear
2:15 PM 53.6 °F - 32.0 °F 44% 29.92 in 10.0 mi NE 6.9 mph - N/A   Clear
2:35 PM 53.6 °F - 32.0 °F 44% 29.91 in 10.0 mi NNE 8.1 mph - N/A   Clear
2:55 PM 53.6 °F - 32.0 °F 44% 29.92 in 10.0 mi ENE 5.8 mph - N/A   Clear
3:35 PM 53.6 °F - 32.0 °F 44% 29.92 in 10.0 mi NNE 9.2 mph - N/A   Clear
3:55 PM 53.6 °F - 32.0 °F 44% 29.93 in 10.0 mi NE 8.1 mph - N/A   Clear
4:15 PM 53.6 °F - 32.0 °F 44% 29.93 in 10.0 mi NNE 8.1 mph - N/A   Clear
4:35 PM 51.8 °F - 32.0 °F 47% 29.94 in 10.0 mi NNE 6.9 mph - N/A   Clear
4:55 PM 50.0 °F - 32.0 °F 50% 29.95 in 10.0 mi NNE 5.8 mph - N/A   Clear
5:15 PM 50.0 °F - 32.0 °F 50% 29.95 in 10.0 mi North 8.1 mph - N/A   Clear
5:35 PM 46.4 °F 41.9 °F 32.0 °F 57% 29.96 in 10.0 mi NNE 9.2 mph - N/A   Clear
5:55 PM 46.4 °F 42.4 °F 32.0 °F 57% 29.97 in 10.0 mi NNE 8.1 mph - N/A   Clear
6:15 PM 44.6 °F 41.4 °F 32.0 °F 61% 29.97 in 10.0 mi NNE 5.8 mph - N/A   Clear
6:35 PM 44.6 °F 40.2 °F 32.0 °F 61% 29.98 in 10.0 mi NNE 8.1 mph - N/A   Clear
6:55 PM 42.8 °F 39.3 °F 32.0 °F 66% 30.00 in 10.0 mi NNE 5.8 mph - N/A   Clear
7:15 PM 41.0 °F 36.4 °F 32.0 °F 70% 30.01 in 10.0 mi North 6.9 mph - N/A   Clear
7:35 PM 41.0 °F 38.0 °F 30.2 °F 65% 30.01 in 10.0 mi NNE 4.6 mph - N/A   Clear
7:55 PM 39.2 °F 35.9 °F 30.2 °F 70% 30.01 in 10.0 mi North 4.6 mph - N/A   Unknown
8:15 PM 37.4 °F 32.8 °F 30.2 °F 75% 30.01 in 10.0 mi NNE 5.8 mph - N/A   Clear
8:35 PM 37.4 °F 33.8 °F 30.2 °F 75% 30.02 in 10.0 mi NNE 4.6 mph - N/A   Clear
8:55 PM 37.4 °F 34.9 °F 30.2 °F 75% 30.02 in 10.0 mi NNE 3.5 mph - N/A   Clear
9:15 PM 37.4 °F 31.4 °F 30.2 °F 75% 30.02 in 10.0 mi NNE 8.1 mph - N/A   Clear
9:35 PM 37.4 °F 32.8 °F 30.2 °F 75% 30.03 in 10.0 mi ENE 5.8 mph - N/A   Clear
9:55 PM 37.4 °F 34.9 °F 30.2 °F 75% 30.04 in 10.0 mi NNE 3.5 mph - N/A   Clear
10:15 PM 37.4 °F 33.8 °F 30.2 °F 75% 30.05 in 10.0 mi NNE 4.6 mph - N/A   Clear
10:35 PM 35.6 °F 30.7 °F 30.2 °F 81% 30.05 in 10.0 mi NNE 5.8 mph - N/A   Clear
10:55 PM 35.6 °F 32.8 °F 28.4 °F 75% 30.06 in 10.0 mi North 3.5 mph - N/A   Clear
11:15 PM 35.6 °F 30.7 °F 28.4 °F 75% 30.06 in 10.0 mi North 5.8 mph - N/A   Clear
11:35 PM 33.8 °F 28.6 °F 28.4 °F 81% 30.07 in 10.0 mi NNE 5.8 mph - N/A   Clear
11:55 PM 33.8 °F 27.0 °F 28.4 °F 81% 30.06 in 10.0 mi NNE 8.1 mph - N/A   Clear